Flag for U.S.A. Weather past 2 weeks in Cheyenne, Wyoming, U.S.A.

Now
43 °F

Passing clouds.


Feels Like: 39 °F
Forecast: 34 / 46 °F
Wind: 7 mph from Northwest

Location: Cheyenne Airport

Current Time: Apr 18, 2015 at 3:49:02 PM

Latest Report: Apr 18, 2015 at 2:53 PM


Visibility: 10 mi

Pressure: 29.88 "Hg

Humidity: 74%

Dew point: 35 °F

Location of CheyenneLocation

Historic Weather in Cheyenne — Graph

°F

Cheyenne temperature yesterday

Maximum temperature yesterday: 36 °F (at 1:03 PM)
Minimum temperature yesterday: 33 °F (at 1:02 AM)
Average temperature yesterday: 34 °F

Past Weeks' High & Low Weather Summary

 TemperatureHumidityPressure
High70 °F (Apr 14, 1:53 PM)100% (Apr 8, 3:53 AM)30.34 "Hg (Apr 8, 3:53 AM)
Low21 °F (Apr 4, 5:53 AM)7% (Apr 5, 4:53 PM)29.48 "Hg (Apr 8, 4:53 PM)
Average43 °F54%29.89 "Hg
* Reported Apr 3 1:53 PM — Apr 18 1:53 PM, Cheyenne, Weather by CustomWeather, © 2015

Note: Actual official high and low records may vary slightly from our data, if they occured in-between our weather recording intervals... More about our weather records

Advertising

Cheyenne weather history for previous 24 hours

 ConditionsComfort  
Time TempWeatherWind HumidityBarometerVisibility
1:53 PM
Sat, Apr 18
42 °FBroken clouds.8 mph76%29.90 "Hg10 mi
12:53 PM39 °FLow clouds.7 mph82%29.93 "Hg10 mi
11:53 AM39 °FLow clouds.8 mph82%29.93 "Hg10 mi
10:53 AM38 °FBroken clouds.13 mph83%29.94 "Hg10 mi
9:53 AM36 °FLow clouds.14 mph85%29.95 "Hg10 mi
8:53 AM37 °FMore clouds than sun.8 mph82%29.95 "Hg10 mi
7:53 AM36 °FOvercast.6 mph85%29.96 "Hg10 mi
6:53 AM35 °FLow clouds.9 mph88%29.95 "Hg10 mi
5:53 AM35 °FLow clouds.6 mph88%29.96 "Hg10 mi
4:53 AM35 °FOvercast.12 mph88%29.95 "Hg10 mi
3:53 AM34 °FLight snow. Mostly cloudy.7 mph92%29.99 "Hg7 mi
2:53 AM34 °FLight rain. Low clouds.6 mph97%30.02 "Hg10 mi
1:53 AM34 °FMostly cloudy.6 mph97%30.03 "Hg10 mi
1:01 AM33 °FFog.6 mph96%30.03 "Hg1 mi
11:53 PM
Fri, Apr 17
33 °FFog.8 mph96%30.07 "Hg6 mi
10:53 PM33 °FLight snow. Fog.5 mph96%30.09 "Hg6 mi
9:53 PM33 °FLight rain. Fog.8 mph96%30.13 "Hg4 mi
8:53 PM34 °FOvercast.16 mph88%30.08 "Hg10 mi
7:53 PM34 °FLight rain. Mostly cloudy.13 mph88%30.09 "Hg10 mi
7:02 PM35 °FLight rain. Fog.9 mph85%30.07 "Hg3 mi
5:53 PM36 °FBroken clouds.16 mph85%30.03 "Hg10 mi
4:53 PM35 °FLight rain. Mostly cloudy.18 mph88%30.05 "Hg10 mi
3:53 PM34 °FLight snow. Fog.8 mph92%30.10 "Hg1 mi
3:01 PM34 °FHeavy rain. Fog.16 mph92%30.04 "Hg2 mi
Weather by CustomWeather, © 2015

See weather overviewHow to use our weather pages